GW2834 Weather Reports


time (UTC)temp
C
wind
direction
speed
KPH
gust
KPH
rain 1hr
cm
rain 24hr
cm
rain mn
cm
humidity
%
barometer
mb
20260502195100 13 192 1.6 6.4 0.00 0.23 0.23 82 1012.0
20260502193603 13 144 1.6 6.4 0.00 0.23 0.23 82 1012.2
20260502192604 13 176 1.6 6.4 0.00 0.23 0.23 82 1012.2
20260502191602 13 208 0.0 6.4 0.00 0.23 0.23 83 1012.4
20260502190605 13 178 1.6 8.0 0.00 0.23 0.23 84 1012.4
20260502185604 13 153 1.6 6.4 0.00 0.23 0.23 86 1012.4
20260502184603 13 182 1.6 8.0 0.00 0.23 0.23 87 1012.6
20260502183603 13 81 3.2 8.0 0.00 0.23 0.23 87 1012.7
20260502183035 13 163 1.6 8.0 0.00 0.23 0.23 88 1012.8
20260502181602 12 173 1.6 4.8 0.00 0.23 0.23 90 1012.9
20260502181034 12 144 1.6 9.7 0.00 0.23 0.23 89 1013.0
20260502163555 11 316 1.6 8.0 0.03 0.23 0.23 90 1014.0
20260502162554 11 105 1.6 6.4 0.00 0.20 0.20 90 1014.3
20260502161553 11 102 1.6 3.2 0.00 0.20 0.20 91 1014.5
20260502160554 11 152 1.6 6.4 0.03 0.20 0.20 91 1014.4
20260502152033 11 203 1.6 6.4 0.05 0.20 0.20 91 1014.1
20260502150551 11 182 1.6 3.2 0.05 0.18 0.18 91 1014.2
20260502130550 11 0 3.2 4.8 0.03 0.05 0.05 90 1013.2
20260502123546 11 359 3.2 4.8 0.00 0.03 0.03 90 1013.1
20260502122546 11 359 3.2 8.0 0.03 0.03 0.03 90 1012.8
20260502121547 11 359 1.6 4.8 0.03 0.03 0.03 90 1012.7
20260502120545 11 359 1.6 4.8 0.03 0.03 0.03 90 1012.8
20260502115544 11 359 1.6 3.2 0.03 0.03 0.03 89 1012.7
20260502114545 11 359 1.6 3.2 0.03 0.03 0.03 89 1012.9
20260502113545 11 359 1.6 8.0 0.03 0.03 0.03 89 1012.9
20260502112543 11 359 3.2 8.0 0.00 0.00 0.00 89 1012.9
20260502111540 11 358 1.6 6.4 0.00 0.00 0.00 89 1013.1
20260502110541 11 357 0.0 3.2 0.00 0.00 0.00 88 1013.1
20260502110033 11 357 1.6 6.4 0.00 0.00 0.00 88 1013.1
20260502104541 11 356 1.6 8.0 0.00 0.00 0.00 88 1013.1
20260502104024 11 47 1.6 6.4 0.00 0.00 0.00 89 1013.1
20260502102540 11 57 1.6 6.4 0.00 0.00 0.00 89 1013.0
20260502101541 11 126 1.6 4.8 0.00 0.00 0.00 90 1013.1
20260502100540 11 131 0.0 0.0 0.00 0.00 0.00 91 1013.1
20260502090535 11 138 0.0 0.0 0.00 0.00 0.00 91 1012.9
20260502071532 11 140 0.0 0.0 0.00 0.00 0.00 90 1012.5
20260502070532 11 140 0.0 0.0 0.00 0.00 0.00 90 1012.3
20260502065531 11 140 0.0 0.0 0.00 0.00 0.00 90 1012.5
20260502065458 11 140 0.0 0.0 0.00 0.00 0.00 90 1012.3
20260502063532 11 140 0.0 0.0 0.00 0.00 0.00 90 1012.4
20260502062529 11 140 0.0 0.0 0.00 0.00 0.00 89 1012.5
20260502062008 11 140 0.0 0.0 0.00 0.00 0.00 89 1012.5
20260502060531 11 140 0.0 0.0 0.00 0.00 0.00 89 1012.6
20260502055529 11 140 0.0 0.0 0.00 0.00 0.00 89 1012.7
20260502054528 11 140 0.0 0.0 0.00 0.00 0.00 89 1013.3
20260502053529 11 140 0.0 0.0 0.00 0.00 0.00 88 1012.9
20260502052530 11 140 0.0 0.0 0.00 0.00 0.00 88 1012.9
20260502051523 11 140 0.0 0.0 0.00 0.00 0.00 88 1013.1
20260502050524 11 140 0.0 0.0 0.00 0.00 0.00 87 1013.1
20260502045521 11 140 0.0 0.0 0.00 0.00 0.00 87 1013.1
20260502044520 11 140 0.0 0.0 0.00 0.00 0.00 87 1013.1
20260502043520 11 140 0.0 0.0 0.00 0.00 0.00 86 1013.1
20260502042521 11 140 0.0 0.0 0.00 0.00 0.00 86 1013.2
20260502041518 11 140 0.0 0.0 0.00 0.00 0.00 86 1013.3
20260502041432 11 140 0.0 0.0 0.00 0.00 0.00 85 1013.4
20260502035513 11 140 0.0 0.0 0.00 0.00 0.00 85 1013.4
20260502035001 11 140 0.0 0.0 0.00 0.00 0.00 85 1013.4
20260502033945 11 140 0.0 1.6 0.00 0.00 0.00 85 1013.4
20260502032513 11 140 0.0 1.6 0.00 0.00 0.00 85 1013.4
20260502031515 11 140 0.0 1.6 0.00 0.00 0.00 85 1013.4
20260502030515 11 140 0.0 3.2 0.00 0.00 0.00 84 1013.5
20260502025922 11 138 0.0 3.2 0.00 0.00 0.00 84 1013.6
20260502025705 11 139 0.0 4.8 0.00 0.00 0.00 84 1013.5
20260502023511 12 137 0.0 4.8 0.00 0.00 0.00 84 1013.5
20260502022511 12 133 1.6 4.8 0.00 0.00 0.00 84 1013.6
20260502021507 12 115 1.6 4.8 0.00 0.00 0.00 84 1013.6
20260502020509 12 101 1.6 4.8 0.00 0.00 0.00 84 1013.6
20260502015508 12 88 0.0 3.2 0.00 0.00 0.00 84 1013.6
20260502014508 11 88 0.0 3.2 0.00 0.00 0.00 84 1013.5
20260502013507 11 88 0.0 0.0 0.00 0.00 0.00 84 1013.6
20260502012507 11 88 0.0 1.6 0.00 0.00 0.00 83 1013.6
20260502011507 11 88 0.0 1.6 0.00 0.00 0.00 82 1013.7
20260502010509 12 88 0.0 1.6 0.00 0.00 0.00 80 1013.3
20260502005509 12 88 0.0 0.0 0.00 0.00 0.00 79 1013.4
20260502004507 12 88 0.0 1.6 0.00 0.00 0.00 79 1013.3
20260502003459 12 88 0.0 1.6 0.00 0.00 0.00 78 1013.1
20260502002934 12 88 0.0 3.2 0.00 0.00 0.00 78 1013.0
20260502001939 12 84 0.0 3.2 0.00 0.00 0.00 78 1013.1
20260502000459 12 142 0.0 1.6 0.00 0.00 0.00 77 1012.9
20260501235931 13 142 0.0 3.2 0.00 0.00 0.00 77 1013.2
20260501234455 13 142 0.0 4.8 0.00 0.00 0.00 76 1013.1
20260501233454 13 152 0.0 6.4 0.00 0.00 0.00 76 1013.0
20260501232454 13 139 1.6 4.8 0.00 0.00 0.00 75 1013.0
20260501231449 13 163 1.6 6.4 0.00 0.00 0.00 75 1012.9
20260501230449 13 177 1.6 4.8 0.00 0.00 0.00 74 1013.0
20260501225448 13 220 0.0 4.8 0.00 0.00 0.00 73 1012.8
20260501224447 13 260 1.6 4.8 0.00 0.00 0.00 73 1013.1
20260501223447 13 91 1.6 6.4 0.00 0.00 0.00 73 1013.3
20260501222923 13 162 1.6 9.7 0.00 0.00 0.00 74 1013.5
20260501221445 13 121 1.6 9.7 0.00 0.00 0.00 74 1013.5
20260501220446 13 187 1.6 6.4 0.00 0.00 0.00 73 1013.7
20260501215446 13 155 1.6 6.4 0.00 0.00 0.00 75 1013.7
20260501214922 13 158 1.6 6.4 0.00 0.00 0.00 75 1013.6
20260501213446 13 196 3.2 8.0 0.00 0.00 0.00 73 1013.8
20260501212446 13 156 3.2 9.7 0.00 0.00 0.00 73 1013.6
20260501211443 13 146 3.2 11.3 0.00 0.00 0.00 73 1013.7
20260501210443 13 73 1.6 6.4 0.00 0.00 0.00 75 1013.6
20260501205444 13 175 3.2 12.9 0.00 0.00 0.00 75 1013.7
20260501204442 14 138 3.2 11.3 0.00 0.00 0.00 72 1013.8
20260501203444 15 158 3.2 19.3 0.00 0.00 0.00 67 1013.7
20260501202443 16 182 1.6 9.7 0.00 0.00 0.00 59 1013.7
20260501201444 17 202 3.2 12.9 0.00 0.00 0.00 55 1013.6
20260501200442 17 236 3.2 14.5 0.00 0.00 0.00 54 1013.7
20260501195436 18 302 3.2 12.9 0.00 0.00 0.00 53 1013.9